CW2939 Weather Reports


time (UTC)temp
F
wind
direction
speed
knots
gust
knots
rain 1hr
in
rain 24hr
in
rain mn
in
humidity
%
barometer
mb
20260508104405 67 174 7.0 12.2 0.00 0.00 0.00 71 1012.5
20260508100405 63 188 4.3 15.6 0.00 0.03 0.00 78 1012.7
20260508094405 64 126 5.2 17.4 0.00 0.03 0.00 77 1012.5
20260508093904 65 12 7.8 17.4 0.00 0.03 0.00 76 1012.4
20260508093404 65 42 10.4 20.9 0.00 0.03 0.00 75 1012.3
20260508091905 64 157 8.7 13.9 0.00 0.03 0.00 70 1012.3
20260508080904 62 106 6.1 10.4 0.00 0.03 0.00 74 1012.3
20260508080405 62 107 5.2 10.4 0.00 0.03 0.00 73 1012.3
20260508074905 62 164 1.7 4.3 0.00 0.03 0.00 74 1012.4
20260508073905 60 300 1.7 2.6 0.00 0.03 0.00 76 1012.5
20260508071904 58 176 0.9 1.7 0.00 0.03 0.00 78 1012.4
20260508071405 58 268 0.0 0.9 0.00 0.03 0.00 78 1012.6
20260508070405 57 39 0.0 2.6 0.00 0.03 0.00 79 1012.6
20260508061405 55 296 1.7 2.6 0.00 0.03 0.00 83 1012.1
20260508060904 55 282 0.9 2.6 0.00 0.03 0.00 84 1012.2
20260508060405 54 175 1.7 5.2 0.00 0.03 0.00 83 1012.0
20260508054904 54 253 2.6 6.1 0.00 0.03 0.00 82 1011.5
20260508054405 54 238 2.6 6.1 0.00 0.03 0.00 81 1011.6
20260508053405 53 355 3.5 6.1 0.00 0.03 0.00 82 1011.2
20260508051405 55 158 1.7 4.3 0.00 0.03 0.00 82 1011.7
20260508050404 55 246 3.5 6.1 0.00 0.03 0.00 81 1011.7
20260508044904 55 254 2.6 2.6 0.00 0.03 0.00 79 1011.4
20260508043904 54 327 1.7 2.6 0.00 0.03 0.00 79 1011.3
20260508040404 55 263 1.7 2.6 0.00 0.03 0.00 82 1011.7
20260508033904 55 280 1.7 2.6 0.00 0.03 0.00 85 1011.8
20260508031904 54 299 1.7 2.6 0.00 0.03 0.00 81 1011.8
20260508031404 54 298 1.7 2.6 0.00 0.03 0.00 81 1011.6
20260508030905 54 310 0.9 2.6 0.00 0.03 0.00 82 1011.6
20260508023904 54 0 1.7 2.6 0.00 0.03 0.00 83 1011.8
20260508021905 56 292 0.0 0.9 0.00 0.03 0.00 83 1011.8
20260508020405 55 306 0.9 2.6 0.00 0.03 0.00 82 1011.6
20260508013905 56 276 1.7 2.6 0.00 0.03 0.00 81 1011.3
20260508011904 56 250 1.7 2.6 0.00 0.03 0.00 78 1011.9
20260508004905 56 285 1.7 2.6 0.00 0.03 0.00 74 1012.1
20260508004405 56 283 1.7 2.6 0.00 0.03 0.00 73 1012.2
20260508001404 57 300 0.0 2.6 0.00 0.03 0.00 74 1012.5
20260508000405 57 295 1.7 2.6 0.00 0.03 0.00 72 1012.7
20260507234405 57 327 0.0 0.9 0.00 0.03 0.00 73 1012.9
20260507233405 57 327 0.0 1.7 0.00 0.03 0.00 73 1013.0
20260507231404 57 11 0.9 1.7 0.00 0.03 0.00 70 1013.0
20260507223904 58 67 2.6 4.3 0.00 0.03 0.00 67 1012.8
20260507214405 59 244 0.9 2.6 0.00 0.03 0.03 71 1012.3
20260507213904 59 256 2.6 2.6 0.00 0.03 0.03 69 1012.2
20260507213405 59 247 1.7 2.6 0.00 0.03 0.03 66 1012.1
20260507211904 59 308 0.0 0.0 0.00 0.03 0.03 64 1012.3
20260507211404 59 311 0.0 0.0 0.00 0.03 0.03 63 1012.3
20260507210404 60 339 0.0 1.7 0.00 0.03 0.03 63 1012.2
20260507204904 60 356 0.9 2.6 0.00 0.03 0.03 61 1012.0
20260507204405 60 305 0.9 1.7 0.00 0.03 0.03 61 1012.0
20260507203405 60 297 1.7 2.6 0.00 0.03 0.03 62 1011.7
20260507201405 61 282 1.7 2.6 0.00 0.03 0.03 62 1011.6
20260507200404 61 245 2.6 2.6 0.00 0.03 0.03 60 1011.5
20260507194904 61 92 1.7 2.6 0.00 0.03 0.03 58 1011.3
20260507193404 62 106 4.3 6.1 0.00 0.03 0.03 57 1011.2
20260507190904 62 104 5.2 7.0 0.00 0.03 0.03 57 1010.9
20260507190404 62 108 6.1 7.0 0.00 0.03 0.03 57 1011.0
20260507184904 62 115 4.3 6.1 0.00 0.03 0.03 58 1010.9
20260507184404 62 98 4.3 7.0 0.00 0.03 0.03 59 1010.8
20260507183404 62 110 5.2 10.4 0.00 0.03 0.03 59 1010.7
20260507181404 64 2 3.5 7.8 0.00 0.03 0.03 56 1010.5
20260507174405 65 113 6.1 8.7 0.00 0.03 0.03 47 1010.1
20260507173905 66 149 4.3 7.8 0.00 0.03 0.03 48 1010.0
20260507173405 66 131 1.7 10.4 0.00 0.03 0.03 49 1010.1
20260507171905 66 143 2.6 12.2 0.00 0.03 0.03 49 1010.0
20260507170905 66 156 1.7 12.2 0.00 0.03 0.03 49 1009.9
20260507170404 66 141 5.2 14.8 0.00 0.03 0.03 49 1009.9
20260507164905 66 141 7.8 14.8 0.00 0.03 0.03 49 1009.8
20260507164404 66 101 7.0 14.8 0.00 0.03 0.03 48 1009.9
20260507161405 67 115 7.8 11.3 0.00 0.03 0.03 51 1009.7
20260507154904 68 99 6.1 10.4 0.00 0.03 0.03 48 1009.7
20260507151404 69 37 1.7 5.2 0.00 0.03 0.03 50 1009.9
20260507150404 67 205 4.3 13.9 0.00 0.03 0.03 53 1010.0
20260507143404 68 123 5.2 10.4 0.00 0.03 0.03 56 1010.5
20260507140905 66 106 8.7 12.2 0.00 0.03 0.03 59 1010.7
20260507140404 66 118 7.8 14.8 0.00 0.03 0.03 57 1010.8
20260507133904 64 106 5.2 14.8 0.00 0.03 0.03 69 1011.4
20260507131906 63 84 4.3 8.7 0.00 0.03 0.03 73 1011.6
20260507131405 62 89 5.2 12.2 0.00 0.03 0.03 72 1011.6
20260507130904 63 117 6.1 10.4 0.00 0.03 0.03 70 1011.6
20260507124904 63 116 11.3 15.6 0.00 0.03 0.03 68 1011.7
20260507123904 63 100 8.7 14.8 0.00 0.03 0.03 71 1012.0
20260507120404 62 117 10.4 18.2 0.00 0.03 0.03 71 1012.2
20260507114904 62 121 11.3 17.4 0.00 0.03 0.03 76 1012.1
20260507114404 62 117 7.0 15.6 0.00 0.03 0.03 76 1012.1
20260507111404 61 124 8.7 13.9 0.03 0.03 0.03 75 1012.3
20260507110904 61 116 7.8 14.8 0.03 0.03 0.03 76 1012.2
20260507110404 61 110 6.1 17.4 0.03 0.03 0.03 78 1012.2
20260507104904 60 105 7.8 11.3 0.03 0.03 0.03 81 1012.1